Date,TemperatureHighF,TemperatureAvgF,TemperatureLowF,DewpointHighF,DewpointAvgF,DewpointLowF,HumidityHigh,HumidityAvg,HumidityLow,PressureMaxIn,PressureMinIn,WindSpeedMaxMPH,WindSpeedAvgMPH,GustSpeedMaxMPH,PrecipitationSumIn
2013-3-1,26.6,18.4,12.4,12.4,6.9,0.0,73,60,44,29.95,29.78,36,10,49,0.00
2013-3-2,39.0,25.4,16.3,17.0,10.8,3.6,73,55,28,29.96,29.80,23,6,36,0.00
2013-3-3,42.8,31.0,16.5,17.2,10.7,2.6,66,44,24,29.80,29.52,21,5,37,0.00
2013-3-4,36.0,17.3,-6.2,17.8,6.0,-18.7,73,61,33,29.72,29.45,31,4,40,0.02
2013-3-5,40.1,16.8,-11.7,10.3,-3.0,-26.7,65,44,20,29.97,29.71,21,4,26,0.02
2013-3-6,48.7,25.6,5.5,13.0,1.9,-7.4,63,38,20,29.89,29.76,17,4,23,0.01
2013-3-7,49.5,30.5,16.3,13.0,3.0,-5.3,46,32,20,29.83,29.76,19,5,30,0.00
2013-3-8,18.7,15.7,14.0,1.8,-0.8,-2.4,54,47,39,29.82,29.76,8,4,10,0.00
2013-3-9,27.0,19.3,8.8,17.2,10.0,-3.3,73,67,55,29.73,29.49,22,8,29,0.00
2013-3-10,22.5,11.9,5.0,5.8,-1.3,-6.2,62,55,42,29.88,29.72,27,10,40,0.01
2013-3-11,31.6,19.7,4.6,13.1,4.7,-7.5,70,52,41,29.86,29.78,27,6,34,0.00
2013-3-12,35.4,25.8,18.9,12.3,10.2,6.7,71,52,34,29.99,29.83,37,9,52,0.00
2013-3-13,39.6,30.0,21.7,16.2,10.2,5.4,55,44,27,30.10,29.97,31,8,38,0.00
2013-3-14,48.0,31.8,18.0,14.7,7.6,3.5,59,38,20,30.12,30.06,28,6,34,0.00
2013-3-15,52.2,34.8,19.6,15.1,10.8,6.9,60,40,21,30.06,29.86,23,5,40,0.00
2013-3-16,45.3,29.8,21.6,26.0,18.4,11.0,75,63,40,29.87,29.72,19,3,29,0.04
2013-3-17,36.9,22.3,13.3,19.3,9.3,-4.8,72,58,30,29.73,29.52,34,5,48,0.01
2013-3-18,18.1,13.1,10.6,4.6,0.1,-3.5,64,55,44,29.68,29.62,15,3,19,0.00
2013-3-19,31.6,19.6,3.0,9.5,-5.5,-15.1,65,34,19,29.96,29.73,27,8,39,0.01
2013-3-20,43.2,21.7,0.3,18.4,2.0,-17.7,72,44,22,29.95,29.70,28,5,34,0.01
2013-3-21,38.3,21.7,13.3,22.1,11.3,2.2,75,64,37,32.08,29.53,25,4,28,0.00
2013-3-22,36.3,18.0,-0.8,7.4,-1.1,-14.1,66,46,21,29.63,29.48,18,4,25,0.07
2013-3-23,13.3,7.6,2.3,2.6,-5.9,-14.5,65,53,33,29.69,29.48,22,5,26,0.00
2013-3-24,10.6,1.5,-8.3,-7.7,-13.2,-24.2,57,49,25,29.73,29.63,25,4,37,0.01
2013-3-25,28.0,4.5,-10.8,-1.2,-14.8,-26.2,53,41,21,29.83,29.72,17,4,21,0.00
2013-3-26,46.0,21.3,-3.5,17.3,2.5,-17.9,72,46,21,29.83,29.76,25,4,34,0.04
2013-3-27,46.9,28.4,17.8,19.0,11.4,4.3,72,51,24,29.91,29.78,24,4,32,0.05
2013-3-28,51.4,29.0,12.0,22.9,10.3,0.7,61,47,22,29.96,29.88,20,4,24,0.00
2013-3-29,47.3,30.0,16.5,23.3,15.1,4.4,77,55,26,30.00,29.94,29,4,38,0.00
2013-3-30,46.0,31.0,20.7,22.2,16.5,8.5,76,58,24,30.00,29.91,29,6,42,0.00
2013-3-31,49.5,27.5,8.6,15.3,6.5,-2.0,74,45,20,29.97,29.88,21,4,26,0.00